Retour au catalogue

CZ-6A DEB

ActifPO
NORAD 61357·DEBRIS·🇨🇳 China

Lancé Aug 6, 2024 depuis Taiyuan Satellite Launch Center

Loading…

Prochains Passages (prochaines 24 heures)

TLE

FraisSource: Space-Track

Époque: Sep 14, 2026, 08:55 UTC

1 61357U 24140VW  26257.37203303  .00001775  00000-0  71672-3 0  9992
2 61357  88.6834 235.5339 0101609 181.0654 179.0339 14.24738313105276

Suivez CZ-6A DEB en temps réel avec AllMySat

Download on the App Store